星链-32413 (STARLINK-32413)

导读

STARLINK-32413是美国SpaceX星链卫星互联网项目的一员,于2024年10月18日发射入轨。星链计划旨在通过大规模低轨卫星星座,为全球提供高速互联网接入服务,覆盖偏远地区与网络基础设施薄弱区域。该卫星的成功发射,进一步扩充了星链星座的规模,推动全球卫星互联网组网进程。

基本信息
目录编号:
61590
目录名称:
STARLINK-32413
国际标识:
2024-187S
轨道中心:
EARTH
卫星名称:
星链-32413
卫星全名:
星链-32413 (STARLINK-32413)
卫星状态:
在轨 (已飞行607 天)
发射日期:
2024-10-18 UTC
国别 :
美国 (US)
星等 :
--
轨道信息
数据来源 国际轨道数据
星历时间: 2026-06-17T01:23:03+0800
1天前
查看轨道信息
半长轴: 6840.836km
偏心率: 0.0001285
轨道倾角: 53.162°
近地点辐角 98.834°
升交点赤经 323.798°
平近点角 261.281°
近地点: 461.819km
远地点: 463.579km
周期: 93.848分钟
每日圈数: 15.344017
详细信息
固有亮度:
5
最大亮度:
2.5
卫星平台:
Starlink V1.0
覆盖范围:
全球
运营商:
太空探索技术公司
运营商所在国:
美国
制造商(研发单位):
太空探索技术公司
制造商所在国:
美国
使用方式:
暂无
卫星简介
Starlink 计划是 SpaceX 推出的全球卫星互联网项目,通过发射低轨道卫星,为全球尤其是偏远地区提供高速、低延迟的互联网服务。自 2019 年起,Starlink 已部署数千颗卫星,旨在缩小全球数字鸿沟,推动互联网普及。该项目还为军事、航空等行业提供通信支持,带来广泛经济效益。
2D轨道图
3D轨道图
轨道高度分析图
轨道倾角分析图
轨道综合分析图
查看轨道综合分析图